Accueil
METAR-TAF:

METAR-TAF

Aéroports :

Fairford, Angleterre

latitude: 51-41N, longitude: 001-47W, altitude: 87 m

Observation

Le bulletin a été fait il y a 25 minutes, à 18:56 UTC
Vent 9 kt de ouest
Température 18°C
Humidité 73%
Pression 1019 hPa
Visibilité 10 km ou plus
Ciel clair

METAR: EGVA 201856Z AUTO 27009KT 9999 CLR 18/13 A3010 RMK AO2 SLP195 T01800133 $

Heure: 20:21 (19:21 UTC)


TAF: absent

Observations et prévisions météorologiques de plus de 4000 aéroports (messages METAR et TAF).

Les stations disponibles sont représentées par des disques jaunes et rouges sur la carte.

Passer la souris dessus pour voir le nom de la station.

Cliquer dessus pour voir les observations et prévisions météorologiques.

Pour changer de carte: cliquez sur les boutons verts avec une croix noire pour zoomer, sur le bouton vert avec un tiret pour effectuer un zoom arrière, ou sur les flèches vertes pour les cartes adjacentes.


METAR-TAF: